Location: Dodge City Co - Operative Exchange Grain Elevator Number 8
(38.1218°N, 99.7124°W)
Time: 07:57:10
(UTC+00:00)

Cosmos 2333 Rocket - Pass Details

Date: 03 March 2021
Orbit: 837 x 864 km, 70.8° (Epoch: 13 April)

Event Time Altitude Azimuth Distance (km) Brightness Sun altitude
Rises 12:24:39 0° 336° (NNW) 3,446 5.1 -9.2°
Reaches altitude 10° 12:27:07 10° 335° (NNW) 2,507 4.4 -8.7°
Maximum altitude 12:32:54 81° 250° (WSW) 878 2.2 -7.6°
Drops below altitude 10° 12:38:39 10° 163° (SSE) 2,494 4.9 -6.4°
Sets 12:41:05 0° 162° (SSE) 3,426 5.7 -6.0°
